Location: Praha
(50.0830°N, 14.4670°E)
Time: 10:56:02
(UTC+01:00)

ISS - Pass Details

Date: 29 January 2023
Orbit: 412 x 423 km, 51.6° (Epoch: 06 February)

Event Time Altitude Azimuth Distance (km) Brightness Sun altitude
Rises 19:15:10 0° 287° (WNW) 2,383 1.3 -23.1°
Reaches altitude 10° 19:17:19 10° 282° (WNW) 1,516 0.1 -23.5°
Enters shadow 19:19:57 40° 244° (WSW) 639 -2.5 -23.9°
